Location: Newark
(9.4667°S, 159.8167°E)
Time: 08:59:55
(UTC+00:00)

Courier 1B Rocket - Pass Details

Date: 24 November 2019
Orbit: 920 x 1202 km, 28.2° (Epoch: 10 December)

Event Time Altitude Azimuth Distance (km) Brightness Sun altitude
Rises 13:56:32 0° 262° (W) 4,066 - -57.6°
Reaches altitude 10° 14:00:02 10° 249° (WSW) 3,075 - -57.3°
Maximum altitude 14:06:02 25° 197° (SSW) 2,115 - -56.7°
Drops below altitude 10° 14:11:47 10° 144° (SE) 2,930 - -56.1°
Exits shadow 14:12:47 - 139° (SE) 3,191 8.1 -55.9°
Sets 14:15:02 0° 131° (SE) 3,835 8.6 -55.7°
